Temperature
24 23 23 21 21 21 24 27 29 29 29 29 29 28 27 26 25 24 23 23 23 22 22 22 22 22 22 21 21 21 20 20 20 20 20 20 20 20 20 20 20 20 20 20 20 20 20 20 20
24 24 23 22 22 23 25 28 29 30 30 29 29 28 27 25 24 23 23 23 23 23 22 22 22 22 22 21 21 20 20 20 20 20 20 20 20 20 20 20 20 20 20 20 20 20 20 20 20
25 24 23 21 23 24 25 28 29 31 31 30 29 28 27 26 24 24 24 23 23 23 23 22 22 22 21 21 21 20 20 20 20 20 20 20 20 20 20 20 20 20 20 20 20 20 20 20 20
25 24 24 22 24 26 27 28 29 30 31 30 28 27 27 26 25 25 24 23 23 23 23 22 22 22 21 21 21 20 20 20 20 20 20 20 20 20 20 20 20 20 20 20 20 20 20 20 20
25 24 22 22 25 28 28 28 29 30 30 29 27 26 26 26 26 25 24 24 24 23 23 22 22 22 22 21 21 20 20 20 20 20 20 20 20 20 20 20 20 20 20 20 20 20 20 20 20
25 23 22 23 26 29 29 29 29 30 29 28 27 25 24 25 25 25 24 24 24 24 23 23 22 22 22 21 21 21 20 20 20 20 20 20 20 20 20 20 20 20 20 20 20 20 20 20 20
25 22 23 25 26 28 30 30 30 29 29 29 28 25 24 24 25 24 24 24 24 24 24 23 23 22 22 21 21 21 21 21 21 20 20 20 20 20 20 20 20 20 20 20 20 20 20 20 20
27 22 24 25 27 28 30 31 31 30 30 30 29 25 24 24 25 24 24 24 24 24 24 24 23 23 22 22 22 21 21 21 21 21 20 20 20 20 20 20 20 20 20 20 20 20 19 19 19
27 22 23 25 27 28 30 31 31 31 31 30 29 29 28 26 25 24 23 23 23 23 23 23 23 23 23 22 22 22 21 21 21 21 21 20 20 20 20 20 19 19 19 19 19 19 19 19 19
26 22 24 27 28 28 30 31 31 30 29 28 28 28 27 26 25 24 24 23 23 23 23 23 23 23 23 22 22 22 22 21 21 21 21 21 20 20 20 20 19 19 19 19 19 19 19 19 19
26 25 26 28 30 30 30 31 32 30 28 28 27 27 26 26 25 25 25 25 24 24 23 23 23 23 23 23 22 22 22 21 21 21 21 21 20 20 20 20 20 19 19 18 19 19 19 19 19
27 26 28 29 30 31 31 31 31 30 30 29 29 28 27 26 26 26 25 25 25 24 23 23 23 22 22 22 22 22 21 21 21 21 21 20 20 20 20 20 20 19 19 19 19 19 19 19 19
26 26 29 30 30 30 31 30 31 31 31 29 29 28 28 27 27 26 26 25 25 24 24 23 22 22 22 22 22 21 21 21 20 20 20 20 20 20 20 20 19 19 19 19 19 19 19 19 19
27 28 29 30 30 30 29 29 30 31 31 29 28 28 28 28 27 26 25 25 25 24 24 23 23 22 21 21 21 21 21 20 20 20 20 20 20 20 20 20 19 19 19 19 19 19 19 19 18
27 26 26 27 28 29 29 27 28 31 30 29 28 28 27 27 26 26 26 25 25 24 24 23 23 22 22 21 21 20 20 20 20 19 19 20 20 20 20 20 20 19 19 19 19 19 19 19 18
25 25 24 25 26 28 27 26 28 30 30 28 27 26 26 26 26 25 25 25 24 24 23 23 22 22 21 21 21 20 20 20 19 19 19 19 19 19 19 19 20 20 19 19 19 19 18 18 18
23 23 24 25 27 27 26 26 28 29 29 27 26 25 25 24 24 24 24 24 23 23 23 22 21 21 21 20 20 19 19 19 19 19 19 19 19 19 19 19 19 19 19 19 19 19 18 18 18
23 24 25 25 27 27 26 27 27 29 28 26 25 24 24 24 23 23 23 23 23 22 22 21 21 20 20 20 19 19 19 19 19 19 19 19 19 19 19 19 19 19 19 19 19 18 18 18 19
25 25 25 26 26 25 25 26 26 27 26 25 23 23 22 22 23 23 23 22 22 22 21 21 21 20 20 20 19 19 19 19 19 19 19 19 19 19 19 19 19 19 18 18 18 18 18 18 18
26 25 24 25 26 26 25 24 24 24 24 23 22 22 22 22 23 23 23 23 22 22 21 21 21 20 20 19 19 19 18 18 18 19 19 19 19 19 19 19 19 18 18 18 18 18 18 18 18
25 25 25 24 24 24 24 22 22 22 22 22 21 21 22 22 23 23 23 23 23 22 22 21 21 21 20 20 19 19 18 18 18 18 18 18 18 18 18 18 18 18 18 18 18 18 18 18 18
24 25 25 24 22 21 22 20 21 21 21 20 21 21 22 22 23 23 23 23 23 23 22 22 21 20 20 19 19 18 18 18 17 17 17 17 17 17 18 18 18 18 18 18 18 18 18 17 17
26 26 25 24 22 21 21 21 20 20 20 20 20 21 22 23 23 23 23 23 23 22 22 21 21 20 19 19 18 18 17 17 17 17 17 17 17 17 17 17 17 17 17 17 17 17 17 17 17
26 24 22 20 19 20 21 21 20 19 20 20 20 21 22 23 23 23 23 23 23 22 21 21 20 20 19 18 18 17 17 16 16 16 17 17 17 17 17 16 16 16 16 16 17 17 16 16 16
24 20 18 19 18 19 20 20 19 20 21 20 20 22 23 23 23 23 23 23 22 22 21 20 20 19 19 18 17 17 16 16 16 16 16 16 16 16 16 16 16 16 16 16 16 16 16 16 15
25 20 19 19 19 18 20 20 20 21 22 22 23 23 23 24 24 23 23 23 22 21 21 20 20 19 18 18 17 16 16 15 15 15 15 15 15 15 15 15 15 15 15 15 15 15 15 15 15
25 22 19 18 19 19 20 21 21 21 21 21 22 22 23 23 23 23 23 22 22 21 21 20 20 19 18 17 17 16 15 15 15 15 15 14 14 14 14 14 15 15 15 15 15 15 15 14 14
24 22 18 19 19 18 19 20 20 21 21 21 20 22 23 23 23 23 23 22 22 21 21 20 20 19 18 17 16 15 15 15 14 14 14 14 14 14 14 14 14 14 14 14 14 14 14 14 14
23 23 20 17 17 17 17 18 20 20 20 21 21 23 23 23 23 23 22 22 22 21 20 20 20 19 18 17 16 15 15 14 14 14 13 13 13 13 13 13 13 13 13 14 14 14 14 14 14
23 22 19 18 18 17 16 18 20 19 19 19 20 21 21 22 22 22 22 22 21 21 20 20 20 19 18 17 16 15 14 14 14 13 13 12 12 12 12 12 12 13 13 13 13 13 13 13 13
Wind_Speed
3 5 3 0 2 4 4 2 5 7 6 6 10 11 8 5 3 4 5 18 20 19 19 24 25 24 22 20 18 17 16 15 14 13 13 13 12 12 11 10 10 10 9 9 8 8 8 8 8
2 2 1 2 4 4 5 2 5 6 7 9 10 8 7 6 8 10 7 16 22 19 19 21 25 24 23 21 19 17 16 15 14 13 12 11 11 10 9 8 8 8 8 8 7 7 7 6 6
2 1 2 3 2 1 5 3 0 4 7 6 6 6 5 6 10 8 11 20 19 16 18 21 25 24 23 21 19 18 16 15 14 13 12 11 10 9 9 8 7 7 7 7 7 6 6 6 6
1 3 4 4 2 5 4 6 4 2 7 8 7 6 4 4 8 12 20 20 19 14 16 21 24 23 22 21 20 18 17 16 15 14 13 12 11 10 9 9 8 7 7 7 6 6 6 7 7
3 3 4 3 4 3 4 5 4 3 5 8 10 6 4 5 18 23 21 20 19 14 14 19 22 22 22 21 20 19 17 16 15 14 13 12 11 11 10 10 9 9 8 8 8 8 8 8 8
3 4 3 4 5 2 4 5 2 6 7 10 10 6 4 11 19 21 20 18 18 18 14 17 21 21 21 21 20 19 18 17 16 15 14 13 12 12 11 11 11 11 10 10 10 10 11 11 11
3 2 2 5 5 3 3 2 3 5 6 7 10 8 6 12 18 20 18 17 16 16 14 13 18 19 20 20 20 19 18 17 16 15 15 14 14 13 13 13 13 14 13 13 13 14 13 13 13
5 3 3 4 5 4 4 1 2 7 6 8 9 10 9 14 18 18 16 15 15 14 14 11 14 16 17 18 20 20 19 18 17 16 16 15 15 15 15 15 15 16 16 17 17 16 16 15 15
2 3 2 4 4 7 7 5 4 0 4 3 5 7 13 21 21 18 14 12 12 13 11 11 11 12 14 15 18 19 19 19 18 17 18 16 14 15 15 17 18 19 19 20 19 19 18 17 17
4 3 7 6 5 6 8 6 5 5 6 6 7 8 16 20 21 20 19 17 16 15 14 12 12 11 12 14 14 13 15 15 16 15 16 15 15 15 16 17 20 21 22 22 22 21 19 17 14
5 7 8 9 7 5 7 9 5 5 4 9 15 16 17 17 17 18 19 19 19 18 16 15 14 12 11 8 9 10 11 12 14 15 16 15 13 13 14 13 15 19 21 19 18 18 16 14 13
5 9 9 8 6 5 6 6 7 1 5 11 17 20 19 19 19 18 18 18 17 17 17 16 15 14 12 9 8 9 8 8 10 15 17 13 8 8 9 9 11 12 14 13 13 10 13 14 16
7 9 8 7 8 6 6 6 6 6 4 11 15 16 18 20 18 15 13 15 16 17 17 17 15 15 13 10 8 9 9 9 12 14 17 17 9 10 10 8 9 11 12 10 8 9 10 11 11
6 7 8 8 9 6 5 8 6 9 4 11 14 14 14 14 13 10 10 11 14 16 16 16 17 16 13 12 10 9 9 10 11 12 16 19 15 10 11 11 9 9 11 12 10 11 11 11 10
7 8 11 9 7 6 4 9 9 10 3 9 11 10 8 6 6 7 8 8 10 11 11 14 17 16 15 13 13 10 9 9 7 10 17 19 18 14 12 12 11 10 11 11 9 9 9 10 10
7 6 7 11 7 9 5 8 9 3 8 8 9 10 9 6 7 6 7 6 5 5 6 9 12 14 14 12 10 7 5 5 5 7 10 15 19 18 12 12 11 9 8 7 8 7 7 8 7
6 4 9 12 8 4 7 5 4 4 11 9 10 11 13 12 12 10 10 9 7 4 4 4 3 7 8 7 5 5 4 5 5 5 5 8 12 16 11 11 10 7 7 7 8 6 5 6 6
6 6 6 7 10 8 7 3 4 5 8 9 10 12 13 13 11 11 11 11 9 8 6 5 5 2 1 2 3 4 5 6 5 5 6 8 8 10 8 9 9 8 7 7 5 5 5 5 5
6 4 5 5 7 9 9 7 9 9 6 6 8 11 12 11 9 10 11 11 10 9 8 6 5 2 2 0 2 3 4 5 5 7 7 8 8 7 6 7 7 7 7 8 8 6 7 6 4
4 5 5 5 7 6 6 6 7 8 4 3 8 9 10 9 8 8 9 9 9 8 6 5 4 2 1 0 1 2 4 5 5 6 7 8 8 7 7 7 7 7 7 9 10 8 6 6 5
5 2 3 4 6 6 5 7 7 6 8 9 8 7 8 9 8 7 7 7 7 7 6 5 5 3 2 1 0 2 3 4 4 6 6 7 8 8 7 8 8 8 8 9 10 9 9 8 6
4 3 4 7 7 5 4 4 7 2 6 6 6 6 6 6 6 7 8 7 7 7 7 7 6 5 4 3 1 1 3 4 6 6 6 8 8 8 8 7 7 7 7 9 9 9 8 8 8
2 3 6 6 4 4 4 0 7 2 2 3 5 6 6 7 8 8 9 9 8 8 7 7 6 5 4 2 2 1 3 4 5 6 8 8 7 7 7 7 6 6 6 7 7 6 6 6 6
2 7 9 7 5 2 5 3 6 3 5 5 4 5 6 8 8 8 8 7 7 6 5 5 5 3 2 2 1 1 4 6 7 9 8 8 7 7 7 6 5 5 5 5 5 5 6 5 5
7 7 6 7 6 5 4 1 6 6 5 7 8 9 10 9 9 9 9 8 7 7 5 5 5 4 3 2 2 2 3 4 6 8 8 8 8 7 8 6 5 5 5 5 4 4 4 4 4
1 8 6 2 4 6 5 0 5 3 5 7 8 9 10 10 9 10 9 8 8 8 7 7 6 5 4 3 2 1 2 2 4 6 6 7 7 8 8 8 6 6 5 5 5 4 4 4 4
2 1 8 7 1 2 4 3 4 3 4 7 8 8 9 9 9 9 8 8 9 9 8 8 8 6 5 4 3 1 1 2 4 5 5 6 7 8 8 7 7 6 5 6 5 4 5 4 4
4 5 5 4 1 4 6 5 5 7 7 6 7 8 7 5 4 6 7 9 8 8 8 8 8 7 6 5 4 2 1 1 3 4 6 7 7 7 8 7 6 5 4 5 5 4 4 4 4
3 1 4 4 5 5 5 7 7 8 5 4 4 3 3 2 1 4 6 7 8 7 8 8 8 7 6 6 4 3 1 0 1 3 5 6 6 7 7 6 5 3 2 2 4 4 4 4 3
2 2 6 4 5 6 5 7 8 4 5 6 7 7 6 6 6 4 4 6 7 8 8 8 8 7 7 7 6 5 3 1 0 2 4 5 6 7 7 6 5 3 1 1 3 4 5 6 6
Wind_Direction
252 217 177 37 28 31 315 295 97 77 64 75 84 87 87 74 123 145 124 140 139 147 154 154 154 151 147 144 143 141 140 137 134 131 129 126 125 125 126 126 126 127 127 127 127 126 124 122 121
292 240 155 25 50 21 317 321 82 113 132 116 90 91 84 81 97 113 122 143 141 146 151 154 156 153 150 149 147 147 147 147 145 144 143 141 141 141 142 142 142 142 142 143 144 143 143 144 147
273 217 89 47 20 259 282 289 298 122 126 113 85 62 75 107 118 129 146 143 139 144 149 156 157 156 154 153 152 153 154 155 156 156 157 157 158 160 162 163 165 166 165 166 168 168 167 171 178
354 47 43 54 284 263 250 284 297 50 86 77 91 65 45 85 128 136 140 142 141 144 149 156 158 159 158 157 158 159 160 163 165 167 169 171 174 178 180 182 185 188 186 189 192 195 196 199 205
85 64 37 341 264 276 263 268 282 68 91 94 92 83 38 30 118 133 143 146 145 145 149 156 158 161 161 161 162 164 167 170 173 175 178 182 185 190 193 194 198 203 205 208 211 216 218 220 224
26 62 43 299 288 265 254 235 214 92 106 114 107 106 63 124 128 142 148 152 151 150 152 157 161 163 164 165 166 169 173 176 180 183 187 191 196 200 204 204 208 213 218 220 224 227 228 227 229
141 96 240 271 286 290 267 226 179 144 132 139 129 111 119 148 147 151 152 151 151 153 156 160 165 167 168 169 171 173 178 183 187 190 194 199 204 207 211 214 216 221 225 228 229 231 232 231 231
159 97 316 301 308 317 315 316 198 159 152 135 129 136 159 171 154 152 150 150 152 157 164 166 168 169 170 174 178 180 184 189 194 198 202 206 210 213 217 220 222 225 229 232 233 233 234 235 235
112 76 266 263 288 301 316 351 331 119 105 111 124 152 162 155 149 148 148 149 156 163 170 172 172 173 173 177 185 188 192 196 200 205 208 211 215 220 223 227 227 230 233 235 237 237 237 238 240
116 170 234 230 253 287 319 347 353 44 71 83 87 104 140 150 153 156 160 165 169 173 178 180 180 178 176 185 190 194 199 203 204 207 211 212 215 221 227 233 235 235 236 238 239 240 242 243 244
193 216 249 269 268 289 322 333 2 78 97 159 152 151 154 158 163 167 170 173 177 178 180 183 185 182 183 191 187 196 206 209 213 214 216 218 220 226 232 235 239 239 239 238 240 240 239 239 240
252 266 271 274 291 318 304 316 332 328 197 181 163 159 162 168 175 179 178 175 176 177 185 184 185 186 190 193 192 194 204 209 215 222 222 220 223 226 229 232 234 232 231 228 229 231 232 235 239
264 266 279 295 324 311 310 299 291 289 196 162 163 165 172 178 183 183 177 171 172 181 187 185 184 188 193 194 195 196 204 211 216 220 222 221 221 227 228 230 231 231 226 222 221 225 231 234 238
278 290 301 303 310 303 306 304 308 273 201 158 167 178 186 186 180 171 169 170 172 179 183 182 186 191 191 195 200 203 205 213 219 223 225 222 223 227 230 234 230 227 223 221 219 222 227 231 234
318 328 323 305 297 281 340 315 282 266 186 158 164 169 175 181 168 169 170 165 171 174 173 176 187 191 194 198 201 202 205 210 214 222 227 226 226 227 228 232 233 229 223 217 218 222 224 229 231
351 1 315 290 274 261 177 248 277 351 101 127 138 127 111 102 115 113 103 107 131 156 165 178 187 192 201 205 210 212 214 221 224 226 228 228 228 229 228 232 235 228 220 215 216 216 217 226 227
1 317 287 297 295 253 156 207 269 84 94 99 111 113 105 93 88 89 89 91 92 102 132 153 157 181 203 218 236 248 254 256 256 259 255 251 241 235 230 233 236 227 222 221 226 222 215 227 232
268 279 300 324 339 39 72 60 6 40 93 109 114 110 105 98 95 93 89 85 80 72 72 87 86 91 137 225 256 263 267 265 265 266 266 272 267 255 238 239 238 228 229 232 228 228 229 229 232
240 292 328 341 359 41 27 10 359 1 41 100 116 115 110 106 105 98 96 93 87 78 75 72 74 74 83 304 265 269 270 271 272 266 261 264 262 261 253 249 241 232 235 240 236 233 238 239 225
332 348 349 344 360 38 16 360 358 9 2 112 127 124 120 113 103 99 100 97 96 98 102 102 100 96 89 138 273 266 271 275 269 274 278 273 268 261 258 240 239 236 236 242 239 227 233 237 209
357 45 30 350 356 21 39 353 346 359 49 76 98 112 119 127 126 118 114 118 119 122 138 147 157 154 155 156 330 326 322 316 312 304 294 287 285 280 266 250 242 237 231 239 238 229 231 241 232
327 337 28 9 13 328 36 324 303 333 62 88 117 130 144 144 146 153 155 157 156 165 168 169 174 178 185 177 173 267 287 291 285 289 289 295 293 290 281 266 251 240 232 235 239 232 228 232 241
274 5 4 337 330 332 341 191 288 353 114 176 173 168 175 180 180 183 182 184 184 181 175 176 177 187 197 192 198 262 285 281 290 297 298 299 298 291 283 271 258 247 239 238 238 235 226 222 227
50 25 2 20 58 4 263 189 283 258 202 189 203 201 208 208 206 208 209 200 196 189 176 171 168 190 203 201 238 274 292 301 309 311 309 307 303 297 288 271 254 246 239 235 232 226 218 216 212
62 65 20 1 8 278 282 150 265 268 191 183 194 210 223 224 217 219 217 208 205 192 183 168 164 186 197 192 225 269 292 303 304 305 306 309 308 303 294 280 259 248 236 226 214 200 198 190 184
114 125 144 205 254 287 339 290 266 257 197 201 205 216 229 234 231 226 222 210 201 190 181 174 176 191 195 195 214 243 296 309 306 306 304 303 301 297 293 284 265 247 231 218 200 193 191 182 185
154 168 167 144 281 321 303 290 298 268 231 220 223 230 236 240 236 231 218 197 189 183 184 184 184 192 198 198 198 211 314 325 318 318 315 309 305 303 302 291 271 252 230 209 191 194 194 183 187
153 155 87 97 182 276 292 293 248 249 241 232 225 228 235 239 228 200 194 192 190 188 190 190 188 193 195 189 189 182 215 304 315 325 326 320 314 310 307 302 285 260 238 210 189 187 188 176 179
298 222 149 150 168 176 261 274 251 236 231 215 225 223 228 260 252 227 226 210 200 194 190 191 193 190 186 186 184 175 189 271 334 338 329 325 324 326 326 319 310 290 257 208 181 178 167 158 147
200 198 152 163 240 194 200 274 328 19 35 38 29 21 15 3 349 317 269 222 209 202 201 198 195 191 191 185 181 181 177 170 330 326 327 330 331 331 332 338 345 345 16 108 148 150 136 130 122
Height
1520 1518 1517 1517 1518 1522 1521 1506 1495 1492 1493 1493 1493 1495 1500 1504 1508 1516 1513 1514 1518 1522 1526 1529 1532 1534 1537 1539 1540 1542 1544 1545 1547 1548 1549 1550 1550 1551 1552 1552 1552 1553 1553 1553 1554 1554 1555 1556 1556
1520 1519 1518 1518 1522 1533 1522 1503 1496 1492 1493 1493 1495 1497 1500 1504 1505 1508 1511 1516 1519 1522 1526 1529 1532 1535 1537 1539 1541 1542 1544 1546 1547 1548 1549 1550 1551 1551 1551 1552 1552 1552 1553 1553 1553 1554 1554 1555 1556
1520 1519 1519 1519 1525 1529 1520 1503 1496 1492 1492 1493 1497 1500 1503 1506 1506 1508 1511 1516 1520 1523 1526 1529 1532 1535 1537 1539 1541 1542 1544 1545 1547 1548 1549 1550 1550 1550 1551 1551 1551 1552 1552 1552 1553 1553 1554 1554 1555
1520 1520 1520 1525 1527 1515 1509 1501 1496 1494 1494 1495 1498 1503 1505 1508 1508 1510 1513 1517 1520 1523 1526 1529 1532 1535 1537 1539 1540 1542 1543 1545 1546 1547 1548 1549 1549 1549 1549 1550 1550 1550 1551 1551 1551 1552 1552 1553 1553
1519 1519 1524 1531 1522 1508 1500 1499 1496 1494 1494 1497 1499 1505 1508 1508 1509 1511 1514 1518 1520 1523 1526 1529 1531 1534 1536 1538 1540 1541 1542 1544 1545 1546 1547 1547 1548 1548 1548 1548 1549 1549 1550 1550 1550 1550 1551 1551 1552
1520 1520 1532 1535 1519 1505 1499 1497 1495 1494 1495 1497 1500 1505 1510 1509 1510 1513 1516 1519 1522 1523 1526 1528 1531 1533 1535 1537 1539 1540 1541 1542 1544 1544 1545 1546 1546 1546 1547 1547 1547 1548 1548 1548 1549 1549 1549 1550 1550
1520 1523 1530 1525 1517 1506 1498 1496 1494 1493 1493 1495 1497 1504 1510 1511 1511 1513 1517 1520 1522 1523 1525 1528 1530 1532 1534 1536 1537 1539 1540 1541 1542 1543 1544 1544 1544 1545 1545 1546 1546 1546 1546 1547 1547 1547 1547 1548 1548
1518 1521 1526 1523 1516 1507 1495 1493 1493 1492 1492 1494 1495 1499 1506 1509 1510 1513 1516 1519 1521 1523 1525 1527 1528 1530 1532 1534 1535 1537 1538 1539 1540 1541 1542 1542 1543 1543 1543 1544 1544 1544 1544 1545 1545 1545 1545 1545 1545
1516 1525 1530 1521 1514 1506 1495 1493 1493 1492 1491 1493 1494 1494 1497 1504 1508 1512 1514 1517 1520 1522 1524 1525 1527 1529 1531 1532 1533 1535 1536 1537 1538 1539 1540 1540 1540 1541 1541 1541 1541 1541 1542 1542 1542 1542 1542 1542 1542
1515 1526 1519 1508 1505 1502 1496 1494 1493 1493 1493 1494 1495 1497 1499 1502 1505 1508 1510 1512 1516 1519 1521 1524 1526 1528 1529 1530 1532 1533 1534 1535 1536 1537 1537 1538 1538 1538 1538 1538 1538 1538 1539 1539 1539 1539 1538 1538 1538
1511 1514 1507 1503 1501 1499 1496 1493 1492 1494 1496 1494 1493 1496 1499 1501 1503 1505 1507 1509 1512 1516 1519 1522 1524 1526 1527 1529 1530 1531 1532 1533 1534 1534 1535 1535 1535 1535 1535 1535 1535 1535 1535 1535 1535 1535 1535 1535 1535
1509 1505 1502 1500 1498 1496 1495 1493 1491 1491 1493 1493 1492 1493 1496 1498 1500 1502 1504 1507 1510 1513 1517 1520 1522 1524 1526 1527 1528 1529 1530 1531 1532 1532 1532 1532 1532 1532 1532 1532 1532 1532 1531 1531 1532 1532 1532 1532 1532
1506 1502 1499 1496 1495 1494 1493 1492 1491 1489 1490 1492 1493 1494 1494 1495 1497 1500 1503 1506 1508 1511 1514 1517 1520 1522 1524 1525 1526 1527 1528 1529 1530 1530 1530 1530 1530 1530 1529 1529 1528 1528 1528 1528 1528 1528 1528 1528 1528
1503 1499 1495 1493 1492 1492 1493 1491 1491 1488 1489 1491 1492 1492 1493 1495 1497 1500 1503 1505 1507 1509 1512 1514 1517 1519 1521 1522 1523 1523 1525 1526 1526 1527 1527 1527 1526 1526 1526 1525 1524 1524 1524 1524 1524 1524 1524 1524 1524
1502 1500 1496 1491 1490 1490 1493 1495 1489 1486 1488 1489 1491 1491 1493 1496 1498 1500 1502 1504 1507 1509 1511 1513 1515 1517 1518 1519 1519 1520 1520 1521 1521 1522 1522 1522 1522 1522 1521 1521 1520 1520 1520 1520 1519 1519 1519 1519 1519
1504 1507 1511 1495 1489 1486 1496 1505 1488 1486 1486 1488 1490 1492 1494 1496 1499 1502 1504 1506 1508 1510 1512 1513 1513 1515 1516 1516 1517 1518 1518 1518 1519 1518 1518 1517 1517 1517 1516 1516 1515 1515 1516 1515 1514 1514 1514 1514 1514
1516 1521 1516 1501 1486 1483 1491 1498 1489 1487 1486 1489 1491 1493 1494 1497 1500 1502 1504 1507 1508 1510 1511 1512 1512 1513 1514 1515 1516 1516 1515 1515 1514 1514 1514 1513 1512 1511 1510 1509 1509 1510 1510 1510 1510 1509 1509 1509 1508
1525 1520 1514 1507 1492 1487 1493 1494 1488 1486 1487 1490 1492 1493 1495 1497 1500 1503 1505 1508 1509 1510 1511 1511 1512 1513 1513 1512 1513 1511 1510 1510 1509 1508 1508 1508 1507 1506 1505 1504 1503 1503 1503 1503 1503 1503 1503 1502 1502
1509 1511 1513 1505 1495 1495 1499 1497 1493 1489 1489 1492 1494 1495 1496 1498 1501 1502 1504 1506 1508 1509 1510 1511 1512 1511 1510 1509 1508 1507 1505 1504 1503 1503 1502 1501 1501 1500 1499 1498 1498 1498 1497 1496 1497 1497 1497 1496 1496
1504 1511 1512 1505 1498 1498 1502 1502 1497 1495 1494 1494 1495 1496 1497 1498 1500 1502 1503 1504 1506 1507 1508 1509 1509 1509 1507 1506 1504 1503 1501 1499 1498 1497 1496 1495 1494 1493 1492 1491 1491 1490 1490 1490 1490 1490 1489 1488 1490
1506 1510 1511 1509 1503 1500 1504 1511 1505 1499 1496 1496 1497 1497 1498 1499 1499 1501 1503 1503 1504 1505 1506 1506 1506 1505 1504 1503 1501 1499 1497 1495 1493 1491 1489 1488 1487 1485 1485 1484 1483 1483 1483 1482 1481 1482 1482 1481 1481
1512 1502 1502 1504 1513 1520 1513 1530 1512 1502 1500 1499 1499 1499 1499 1500 1500 1500 1501 1501 1502 1503 1503 1503 1502 1501 1500 1499 1497 1495 1493 1490 1488 1486 1483 1481 1480 1479 1478 1477 1476 1475 1474 1474 1473 1474 1474 1474 1473
1503 1497 1500 1503 1511 1520 1516 1525 1520 1506 1506 1503 1500 1499 1499 1499 1499 1499 1499 1499 1500 1500 1500 1499 1499 1498 1497 1495 1493 1491 1489 1486 1483 1481 1478 1475 1474 1472 1470 1469 1468 1467 1467 1466 1466 1466 1466 1465 1465
1497 1501 1506 1513 1522 1534 1520 1525 1525 1511 1505 1503 1501 1499 1498 1498 1497 1497 1497 1497 1497 1497 1497 1497 1496 1495 1493 1492 1490 1487 1485 1481 1478 1475 1472 1469 1467 1465 1463 1462 1461 1460 1459 1459 1458 1458 1458 1458 1458
1502 1523 1542 1542 1547 1540 1519 1523 1522 1502 1498 1498 1497 1496 1495 1495 1494 1494 1494 1494 1494 1494 1494 1494 1493 1492 1490 1488 1486 1483 1481 1477 1474 1471 1467 1464 1460 1458 1456 1455 1454 1453 1453 1452 1452 1452 1452 1452 1452
1504 1519 1544 1553 1553 1542 1525 1524 1514 1497 1495 1493 1492 1492 1492 1491 1491 1491 1491 1491 1492 1492 1492 1491 1490 1489 1487 1485 1482 1480 1477 1474 1470 1467 1463 1459 1456 1452 1450 1448 1447 1447 1446 1447 1447 1447 1448 1448 1449
1506 1514 1519 1536 1536 1541 1532 1517 1507 1497 1495 1492 1491 1490 1489 1488 1488 1488 1489 1489 1489 1489 1489 1489 1487 1485 1483 1481 1479 1476 1473 1470 1467 1463 1459 1455 1451 1447 1444 1442 1441 1441 1441 1442 1442 1443 1444 1445 1446
1499 1506 1522 1532 1544 1550 1537 1525 1518 1501 1496 1492 1490 1489 1488 1488 1487 1487 1486 1486 1486 1486 1486 1485 1483 1481 1479 1477 1475 1472 1470 1467 1463 1459 1455 1451 1447 1443 1440 1437 1436 1435 1436 1437 1438 1440 1441 1443 1444
1505 1506 1514 1528 1535 1547 1549 1534 1501 1496 1492 1490 1488 1487 1488 1488 1488 1487 1486 1485 1484 1483 1482 1481 1479 1477 1475 1473 1471 1469 1467 1464 1460 1457 1452 1448 1445 1441 1437 1434 1432 1431 1431 1433 1434 1436 1438 1440 1442
1500 1504 1515 1529 1530 1531 1538 1530 1498 1495 1493 1491 1491 1491 1491 1490 1489 1488 1486 1484 1482 1481 1479 1477 1476 1474 1471 1469 1467 1465 1463 1460 1457 1454 1451 1447 1443 1439 1436 1433 1430 1429 1428 1429 1431 1433 1435 1437 1440